Lapse_Rate
4.1 4.2 3.6 3.4 3.4 3.4 3.5 3.6 3.9 3.8 3.9 4.1 4.2 4.3 4.2 4.3 4.4 4.4 4.5 4.7 4.6 4.5 4.6 4.5 4.4 4.1 4.0 3.7 4.2 4.5 6.7 6.8
3.5 3.3 3.7 3.8 4.0 3.4 3.7 3.8 3.9 4.0 4.0 4.1 4.2 4.0 4.0 4.0 4.1 4.3 4.5 4.6 4.6 4.8 4.8 4.7 4.4 4.2 3.7 3.8 4.6 5.1 6.4 6.7
2.8 3.2 3.3 3.5 3.9 3.8 3.7 3.7 3.9 3.9 4.0 4.0 4.1 4.9 5.0 5.1 4.1 4.2 4.6 4.6 4.7 4.7 4.6 4.6 4.9 5.3 5.2 4.9 5.1 6.3 6.4 6.8
3.2 3.1 3.1 3.0 4.0 3.8 3.8 4.1 4.5 4.6 4.5 4.4 4.9 4.6 5.2 5.3 4.8 4.7 4.4 4.6 4.3 4.0 4.0 5.0 6.0 6.8 6.7 6.0 6.7 6.3 7.1 7.0
3.6 3.1 2.8 3.5 4.3 4.0 4.4 4.6 4.4 4.4 4.3 4.2 4.2 4.7 5.1 5.5 5.7 5.8 5.4 4.3 5.6 5.6 6.0 5.9 5.6 6.1 6.2 6.1 6.4 6.8 6.7 6.8
4.3 3.6 3.5 3.3 4.3 4.6 4.6 4.9 4.7 5.2 5.2 4.6 5.1 5.6 5.7 5.6 5.8 5.0 4.9 4.8 5.0 5.2 5.5 5.0 5.3 5.3 5.4 5.9 6.0 6.6 6.7 6.8
4.7 3.9 3.8 3.9 4.3 4.7 4.8 4.9 5.2 5.3 5.5 5.1 5.1 5.6 5.2 5.2 4.6 4.8 4.7 5.0 5.1 5.3 5.6 5.6 5.5 5.6 5.7 5.8 6.2 6.1 5.9 6.2
4.3 4.0 4.1 4.4 4.5 4.2 4.3 4.4 4.9 4.7 3.8 3.4 3.7 4.6 4.6 4.7 4.7 4.7 4.7 4.8 4.8 5.4 5.5 6.0 6.1 5.8 6.3 5.8 6.0 6.3 6.1 5.6
4.0 4.1 4.1 3.6 3.2 3.0 1.4 1.0 2.3 2.6 2.5 2.1 2.3 3.2 4.1 4.2 4.6 4.9 4.8 4.8 5.1 5.8 6.0 6.3 6.9 6.6 6.9 6.6 6.3 5.9 5.8 5.2
4.4 4.1 3.4 3.4 2.9 2.3 1.5 1.6 1.5 1.4 1.6 1.5 2.2 3.2 4.0 4.4 5.2 5.2 5.0 5.2 5.7 6.2 6.3 7.0 6.9 6.7 6.3 6.8 6.4 6.3 5.6 5.3
3.5 4.2 4.0 3.8 1.6 0.5 1.8 2.5 2.7 2.3 2.4 2.9 3.0 2.9 3.4 4.3 4.6 4.5 4.8 5.4 5.6 5.9 6.7 6.2 6.8 6.9 6.7 7.1 6.6 7.1 5.8 6.0
3.2 3.8 3.2 1.8 1.0 1.8 2.8 2.6 2.6 2.7 2.9 2.9 3.2 3.4 3.5 4.2 4.4 4.4 5.2 6.2 6.4 6.1 6.1 6.6 6.5 6.3 6.9 7.6 7.3 7.5 6.7 6.8
2.7 3.8 3.5 2.7 2.7 3.4 3.4 3.3 3.2 3.2 3.5 3.1 3.4 3.6 3.9 4.4 5.3 5.6 5.6 6.2 5.7 5.7 6.4 6.3 7.4 6.2 7.2 9.2 9.2 7.7 7.7 7.9
5.3 4.6 3.7 4.2 5.5 5.8 5.3 4.7 3.8 3.5 3.2 3.0 3.3 3.6 4.1 5.0 5.3 5.5 5.5 6.9 6.8 6.5 6.1 6.7 7.1 6.5 7.9 8.9 8.3 8.9 8.9 9.3
4.9 4.8 4.8 5.0 4.8 4.1 3.6 3.5 3.7 4.3 4.3 4.5 3.9 4.3 5.0 5.2 5.3 6.0 6.3 6.5 6.9 6.4 6.2 6.2 7.5 8.1 7.4 8.9 8.3 7.9 8.8 9.5
5.1 4.9 5.1 4.6 4.4 5.4 5.8 6.9 7.1 5.1 5.0 5.0 5.6 5.0 5.4 5.6 5.9 6.1 6.5 6.8 7.3 7.4 7.1 6.9 7.2 8.9 9.4 9.5 9.0 9.0 8.0 7.9
4.2 4.7 4.8 4.4 4.9 5.5 6.0 5.7 5.3 5.3 5.6 6.0 6.1 6.0 5.6 6.0 6.1 6.5 7.1 7.5 7.3 7.2 7.1 7.2 8.0 9.0 9.2 9.2 9.2 9.3 9.2 8.4
4.4 4.7 4.5 4.9 5.2 5.1 5.5 5.6 5.9 6.8 6.9 7.3 7.3 7.0 6.6 6.4 6.7 6.9 7.0 7.0 7.0 7.2 7.0 7.2 8.0 8.4 8.7 8.8 9.1 8.7 8.7 8.6
4.9 5.8 5.3 4.9 5.1 5.5 5.9 6.5 6.9 7.6 7.8 7.9 7.9 8.5 8.5 8.5 7.0 7.0 7.1 6.9 7.0 7.3 8.1 8.3 8.5 8.5 8.3 8.5 8.5 8.5 8.6 7.7
5.7 5.6 5.2 5.2 5.6 6.0 6.5 6.8 7.6 7.8 7.5 7.6 8.0 8.0 8.0 7.0 6.7 6.7 6.8 6.6 6.7 6.7 7.2 7.9 8.6 8.6 8.5 8.5 8.5 8.8 8.7 9.0
Wind_Speed
11 12 13 13 13 14 14 13 12 12 11 10 11 11 11 10 10 10 9 9 10 10 11 12 12 12 12 13 13 11 10 10
9 9 10 11 11 12 12 11 11 10 10 10 10 9 9 9 9 8 8 8 9 9 10 11 12 13 15 15 14 12 13 10
6 9 9 8 9 9 10 10 11 10 10 9 8 6 6 6 6 6 6 7 8 8 9 11 11 13 15 16 12 10 11 11
7 6 7 7 7 7 6 7 7 7 6 6 4 4 3 3 2 3 4 7 9 9 10 10 10 9 10 12 11 11 10 11
8 7 5 4 3 3 3 3 3 3 4 3 3 2 2 2 1 3 5 8 7 8 8 8 9 8 8 8 9 9 9 9
7 5 6 4 3 2 2 1 1 3 3 2 1 1 2 3 4 5 6 6 6 6 6 6 7 7 8 8 9 10 10 10
6 6 6 6 6 6 4 3 4 5 4 3 2 1 4 5 6 6 6 5 6 7 6 6 6 6 7 9 10 10 11 10
6 8 8 9 9 9 7 6 6 4 4 4 4 5 6 7 6 7 7 6 7 6 5 5 5 7 7 9 9 9 10 10
12 13 16 17 14 13 11 12 8 5 6 7 7 7 9 9 8 7 7 7 6 5 5 5 6 7 7 8 9 8 8 6
13 13 15 15 15 13 13 12 9 7 7 8 9 11 10 9 8 7 6 6 7 7 6 5 5 5 6 6 7 7 3 5
15 13 12 9 12 16 7 4 3 6 7 10 10 11 10 11 9 7 8 8 7 7 5 5 6 6 7 6 6 5 1 4
14 11 8 9 7 9 7 5 6 5 7 10 9 10 10 9 8 8 7 6 5 5 5 5 4 4 7 5 7 5 2 4
11 12 9 9 7 5 3 3 3 4 7 9 9 9 9 10 8 6 6 4 4 4 4 6 5 5 4 7 6 5 3 3
11 11 13 11 9 6 3 4 2 5 7 6 8 8 7 6 4 4 4 4 5 5 5 5 5 4 5 6 5 5 2 7
12 13 12 8 4 5 5 5 5 3 3 3 4 4 4 3 3 2 2 4 4 5 4 4 5 4 4 4 5 4 9 5
9 9 9 7 7 4 4 2 2 2 3 2 2 2 2 1 1 2 3 3 4 4 3 3 4 5 5 3 5 6 6 8
8 8 7 6 4 4 2 3 4 3 3 2 2 2 3 4 4 6 6 5 5 4 3 3 3 4 4 4 5 6 8 7
4 7 5 4 5 5 5 6 5 3 2 2 2 3 5 6 8 8 7 7 6 6 5 5 4 4 4 5 5 5 6 6
5 5 6 5 6 6 5 5 3 2 3 3 4 4 4 5 7 8 7 8 7 6 5 6 7 6 6 5 5 6 6 6
3 5 5 5 5 5 3 3 2 3 4 4 4 5 6 10 9 10 9 7 6 5 5 4 5 7 8 7 5 5 5 7
Wind_Direction
158 155 146 149 151 150 148 143 142 137 131 130 130 123 112 103 89 76 67 60 56 51 45 40 32 28 27 23 14 24 26 18
162 149 154 160 158 155 150 145 141 138 139 138 130 117 101 93 87 75 61 47 41 33 27 20 20 23 23 21 14 8 4 3
162 164 162 156 153 157 153 151 147 148 143 143 125 116 107 95 75 58 55 44 26 21 21 24 26 23 21 18 22 10 355 353
181 171 164 162 147 155 161 152 154 163 156 151 134 119 108 98 73 45 48 42 41 41 41 43 34 24 17 17 15 6 1 349
182 174 150 127 95 146 143 149 157 168 181 179 149 159 189 179 160 37 38 38 46 46 41 40 39 38 30 19 6 2 358 348
170 150 104 88 52 99 76 70 273 245 237 228 234 244 279 29 48 57 50 45 54 50 53 55 46 36 25 14 13 5 355 339
154 136 102 76 51 25 5 340 302 302 316 339 358 3 74 74 76 77 63 53 54 57 49 34 28 19 14 11 3 358 354 345
131 102 92 80 65 48 21 348 309 339 5 14 66 95 110 108 94 78 66 55 54 44 32 16 7 356 352 357 348 345 343 343
112 94 93 78 66 56 41 13 30 62 87 78 84 105 102 102 91 75 63 59 55 40 23 360 343 338 330 327 327 339 345 13
115 106 94 82 73 33 42 30 37 66 102 110 111 108 106 96 86 70 53 46 28 11 356 332 325 322 325 327 327 333 356 27
121 113 99 80 73 85 47 84 111 121 133 109 101 88 84 83 75 60 37 29 19 355 343 339 331 336 329 324 327 320 334 9
119 119 117 84 95 127 144 132 156 144 98 94 96 88 84 85 72 52 32 21 16 4 348 344 332 340 315 298 305 276 209 350
132 130 146 137 143 154 156 155 138 98 84 81 87 85 72 62 58 45 36 31 19 8 341 336 336 347 311 316 290 220 264 352
147 146 150 160 162 164 129 143 132 102 87 87 80 75 67 73 75 63 43 10 3 359 356 337 328 358 335 312 316 280 307 330
150 154 157 163 158 96 99 116 120 142 134 108 87 75 62 59 74 54 14 355 352 347 345 342 330 334 6 326 308 304 327 320
130 134 137 131 144 164 187 197 182 109 121 127 98 28 10 342 287 298 308 307 312 321 324 317 304 312 319 302 287 294 292 300
134 134 138 133 151 127 133 90 89 107 132 175 242 285 295 286 275 288 288 287 285 272 264 257 243 289 295 301 296 297 282 291
126 130 117 108 93 83 98 117 128 147 201 257 280 289 286 274 273 274 276 272 259 258 253 237 249 265 272 287 290 299 306 295
149 138 120 103 97 98 116 128 150 225 255 281 299 306 295 298 285 275 275 281 281 283 283 295 297 292 298 302 292 286 293 283
157 138 129 118 106 120 115 135 229 275 308 309 293 297 297 304 310 300 291 274 267 260 273 289 310 297 286 287 290 289 291 300